Location: Albany
(35.0170°S, 117.8920°E)
Time: 01:55:45
(UTC+08:00)

Explorer 7 - Pass Details

Date: 31 January 2021
Orbit: 484 x 677 km, 50.3° (Epoch: 01 March)

Event Time Altitude Azimuth Distance (km) Brightness Sun altitude
Rises 18:41:40 0° 224° (SW) 3,004 11.8 5.9°
Reaches altitude 10° 18:44:35 10° 208° (SSW) 2,060 10.5 5.3°
Maximum altitude 18:48:12 21° 158° (SSE) 1,417 8.9 4.6°
Drops below altitude 10° 18:51:40 10° 108° (ESE) 1,963 9.2 4.0°
Sets 18:54:21 0° 91° (E) 2,821 9.8 3.4°
